This is the latest recevied weather packets stored in our database for station/object WMKI. If no packets are shown the sender has not sent any weather packets the latest 10 day(s).
| Time | Temp. | Humidity | Pressure | Rain* | Wind** | Luminosity | Snow |
|---|---|---|---|---|---|---|---|
| 1777914642 | 25° C | 10% | - | - | - | - | - |
| 1777911042 | 25° C | 94% | 1011 hPa | - | - | - | - |
| 1777907454 | 25° C | 94% | 1011 hPa | - | - | - | - |
| 1777903844 | 25° C | 10% | - | - | - | - | - |
| 1777900240 | 25° C | 94% | 1009 hPa | - | - | - | - |
| 1777896641 | 25° C | 94% | 1008 hPa | - | - | - | - |
| 1777893054 | 25.56° C | 94% | 1008 hPa | - | - | - | - |
| 1777889441 | 25.56° C | 88% | 1007 hPa | - | - | - | - |
| 1777885839 | 25° C | 10% | - | - | - | - | - |
| 1777882239 | 25° C | 94% | 1009 hPa | - | - | - | - |
| 1777878653 | 22.78° C | 10% | - | - | - | - | - |
| 1777875040 | 30.56° C | 66% | 1009 hPa | - | - | - | - |
| 1777871439 | 31.67° C | 70% | 1010 hPa | - | - | - | - |
| 1777867839 | 30.56° C | 70% | 1011 hPa | - | - | - | - |
| 1777864251 | 30° C | 74% | 1011 hPa | - | - | - | - |
| 1777860639 | 28.89° C | 74% | 1011 hPa | - | - | - | - |
| 1777857042 | 26.67° C | 83% | 1011 hPa | - | - | - | - |
| 1777853438 | 25.56° C | 88% | 1010 hPa | - | - | - | - |
| 1777849838 | 25° C | 94% | 1009 hPa | - | - | - | - |
| 1777846253 | 25° C | 94% | 1009 hPa | - | - | - | - |
| 1777842640 | 25° C | 94% | 1008 hPa | - | - | - | - |
| 1777839038 | 25° C | 94% | 1009 hPa | - | - | - | - |
| 1777835439 | 25° C | 94% | 1009 hPa | - | - | - | - |
| 1777831838 | 25° C | 94% | 1010 hPa | - | - | - | - |
| 1777828253 | 25° C | 94% | 1010 hPa | - | - | - | - |
* Rain since midnight (hover to see other rain measurements)
** Current wind speed in m/s (hover to see current wind gust speed)